User: anonymous   Login
Location: Unspecified
(43.4354°N, 0.0000°E)
Time: 01:37:31
(UTC+00:00)
Language:

Altair - Orbit

View from above orbital plane
View from above orbital plane
View from above satellite
View from above satellite

Ground track
Ground track

The orbit data is extracted from the following two-line orbital elements,

1    50U 60009B   19176.22132740 -.00000064  00000-0  20087-3 0  9996
2    50  47.2290 153.0985 0114221 337.7008  21.8840 12.20109681626930
Epoch (UTC): 25 June 2019 05:18:42
Eccentricity: 0.0114221
inclination: 47.2290°
perigee height: 1501 km
apogee height: 1683 km
right ascension of ascending node: 153.0985°
argument of perigee: 337.7008°
revolutions per day: 12.20109681
mean anomaly at epoch: 21.8840°
orbit number at epoch: 62693

The dashed part of the orbit path shows where the satellite is in the earth's shadow,  

DLR